Regional Weather Roundup
Issued by NWS Wakefield, VA

Home | Current Version | Previous Version | Text Only | Print | Product List | Glossary On
Versions: 1 2 3 4 5 6 7 8 9 10 11 12 13 14 15 16 17 18 19 20 21 22 23 24 25 26 27 28 29 30 31 32 33 34 35 36 37 38 39 40 41 42 43 44 45 46 47 48 49 50
929
ASUS41 KAKQ 060415
RWRAKQ

REGIONAL WEATHER ROUNDUP
NATIONAL WEATHER SERVICE WAKEFIELD VA
1100 PM EST MON DEC 05 2016

Note: "fair" indicates few or no clouds below 12,000 feet with no
significant weather and/or obstructions to visibility. * = Denotes
station may not report precipitation (e.g., rain,snow,etc.),
thunder or fog.

VAZ042-051-052>054-056-060500-
NORTHERN VIRGINIA

CITY           SKY/WX    TMP DP  RH WIND       PRES   REMARKS
WASH NATIONAL  CLOUDY    46  33  60 NE8       30.14R
DULLES         CLOUDY    40  32  73 CALM      30.12S
FORT BELVOIR   CLOUDY    44  35  73 CALM      30.12R
QUANTICO       CLOUDY    42  38  85 NW6       30.13R
FREDERICKSBRG* CLOUDY    43  43 100 CALM      30.11F
STAFFORD*      CLOUDY    39  38  97 CALM      30.16F
WARRENTON      CLOUDY    38  33  82 CALM      30.12S
CULPEPER*      CLOUDY    41  36  83 CALM      30.13F
MANASSAS*      CLOUDY    39  37  93 CALM      30.13R
LEESBURG*      CLOUDY    43  34  70 MISG      30.13S
WINCHESTER     CLOUDY    36  32  87 CALM      30.11F
FRONT ROYAL*   FAIR      39  32  75 CALM      30.11S
LURAY*         FAIR      43  34  70 NE6       30.09F
$$

VAZ048-049-060>072-079>083-060500-
CENTRAL AND SOUTH CENTRAL VIRGINIA

CITY           SKY/WX    TMP DP  RH WIND       PRES   REMARKS
RICHMOND       CLOUDY    43  41  93 CALM      30.11R
CHESTERFIELD*  FAIR      43  28  56 CALM      30.13R
PETERSBURG*    CLOUDY    42  41  96 CALM      30.12R
HANOVER        CLOUDY    42  40  92 CALM      30.12S FOG
TAPPAHANNOCK*  CLOUDY    41  41 100 CALM      30.12S
QUINTON*       FAIR      42  41  99 CALM      30.11S
CHARLOTTSVILLE CLOUDY    46  40  79 CALM      30.10S
GORDONSVILLE*  FAIR      41  41 100 CALM      30.10F
ORANGE*          N/A     41  41 100 CALM      30.13F
LOUISA*        MOCLDY    45  43  93 CALM      30.09F FOG
BUMPASS*       FAIR      41  41 100 CALM      30.11S
FARMVILLE*     CLOUDY    45  44  98 CALM      30.09F
CREWE*         FAIR      44  44 100 CALM      30.10S
FORT PICKETT*  MOCLDY    45  41  88 W6        30.10S
CHASE CITY*    MOCLDY    47  45  95 CALM      30.08F
CLARKSVILLE*   MOCLDY    46  45  93 CALM      30.08S
SOUTH HILL*    CLOUDY    45  45  98 CALM      30.15S
LAWRENCEVILLE* CLOUDY    45  44  95 CALM      30.09S
EMPORIA*       CLOUDY    43  43 100 CALM      30.12R
$$

VAZ088>098-060500-
SOUTHEAST VIRGINIA

CITY           SKY/WX    TMP DP  RH WIND       PRES   REMARKS
NORFOLK        CLOUDY    50  41  71 NE10      30.09S
VIRGINIA BEACH CLOUDY    47  41  80 N6        30.08F
NORFOLK NAVAL  CLOUDY    50  42  74 NE5       30.11S
WEST POINT*    CLOUDY    41  40  97 CALM      30.13S
SALUDA*        FAIR      43  43 100 CALM      30.11R
NEWPORT NEWS   CLOUDY    45  43  93 N3        30.10S
LANGLEY AFB    CLOUDY    45  44  96 CALM      30.09S
FORT EUSTIS    CLOUDY    45  42  89 CALM      30.07F
WILLIAMSBURG*  CLOUDY    46  45  93 CALM      30.11F
HR EXEC AP*    FAIR      43  39  87 CALM      30.08F
FRANKLIN*      CLOUDY    43  42  94 CALM      30.11S
US460-WAKEFLD  CLOUDY    43  42  97 CALM      30.11S
$$

VAZ020-022-025-037-045-060500-
WEST CENTRAL AND SOUTHWEST VIRGINIA

CITY           SKY/WX    TMP DP  RH WIND       PRES   REMARKS
STAUNTON*      CLOUDY    42  32  69 CALM      30.10S
WAYNESBORO*    FAIR      44  39  83 CALM      30.08S
HOT SPRINGS VA CLOUDY    37  30  75 E10G17    30.00F
LYNCHBURG      CLOUDY    47  40  76 E5        30.09F
DANVILLE       CLOUDY    48  45  89 CALM      30.09R
SOUTH BOSTON*  CLOUDY    46  45  95 CALM      30.09S
MARTINSVILLE   LGT RAIN  46  45  96 CALM      30.12R
ROANOKE        CLOUDY    49  40  71 SE6       30.09R
BLACKSBURG     DRIZZLE   46  40  78 SE5       30.09R
DUBLIN*        CLOUDY    47  42  81 SE8       30.07R
MARION*        LGT RAIN  46  44  93 E10G16    30.03F
HILLSVILLE*    LGT RAIN  42  42  99 SE3       30.04R
RICHLANDS*     RAIN      47  23  38 SE12G24   29.93R
WISE*          CLOUDY    46  37  71 CALM      29.90F
ABINGDON*      RAIN      49  46  87 E13       29.93F
$$

MDZ021>025-VAZ099-100-060500-
SOUTHERN MARYLAND AND THE DELMARVA PENINSULA

CITY           SKY/WX    TMP DP  RH WIND       PRES   REMARKS
PATUXENT RIVER CLOUDY    41  39  93 NW3       30.11R
BAY BRIDGE APT MOCLDY    45  32  61 N12G17    30.13R
LEONARDTOWN    CLOUDY    41  37  87 CALM      30.13R
DOVER          MOCLDY    41  38  89 NW7       30.11R
GEORGETOWN     CLOUDY    43  37  79 CALM      30.12R
EASTON         CLOUDY    44  35  69 NE5       30.16R
CAMBRIDGE      CLOUDY    39  37  93 CALM      30.12R
SALISBURY      CLOUDY    39  38  96 NW5       30.10R
OCEAN CITY     CLOUDY    42  38  85 NW3       30.10R
WALLOPS ISLAND CLOUDY    44  39  82 N5        30.11R
ACCOMACK*      CLOUDY    42  40  96 CALM      30.11R
$$

NCZ012>017-030>032-060500-
NORTH CENTRAL AND EASTERN NORTH CAROLINA

CITY           SKY/WX    TMP DP  RH WIND       PRES   REMARKS
ROANOKE RAPIDS DRIZZLE   45  45 100 CALM      30.10R
RALEIGH        LGT RAIN  50  45  83 E7        30.07S
ELIZABETH CITY CLOUDY    48  42  80 CALM      30.11R
AHOSKIE*       CLOUDY    45  43  95 CALM      30.11R
EDENTON*       CLOUDY    47  44  87 CALM      30.11S
CURRITUCK*     CLOUDY    49  45  88 N5        30.09F
KILL DEVIL HLS CLOUDY    52  47  83 NE5       30.07S
MANTEO         CLOUDY    51  45  80 NE5       30.08F
CAPE HATTERAS  MOCLDY    53  48  83 VRB6      30.07R
TARBORO*       NOT AVBL
GOLDSBORO      CLOUDY    51  50  96 E3        30.07S
WASHINGTON     CLOUDY    48  42  81 E6        30.09F
GREENVILLE     CLOUDY    50  46  87 E6        30.09F
NEW BERN       LGT RAIN  50  44  80 E5        30.08F
WILMINGTON     LGT RAIN  50  48  93 NE13      30.03F
$$

VAZ048-060500-
ELSEWHERE

CITY           SKY/WX    TMP DP  RH WIND       PRES   REMARKS
HARRISBURG PA  CLOUDY    37  32  82 N3        30.13R
BALTIMORE      CLOUDY    43  32  65 N5        30.12R
ANNAPOLIS      CLOUDY    47  34  60 N5        30.14R
ANDREWS AFB    CLOUDY    41  33  74 N7        30.11R
PHILADELPHIA   MOCLDY    41  31  67 NW8       30.12R
HENDERSON NC   CLOUDY    45  42  88 E6        30.07F
GREENSBORO     LGT RAIN  49  46  90 E6        30.07R
ROCKY MOUNT    CLOUDY    49  46  90 NE5       30.09F
$$

VAZ100-060500-
MARINE

STATION/POSITION TIME  TEMP    WIND        PRES    WAVE   SWELL
                       AIR SEA DIR/SP/G            HT/PER HT/PER
                 (UTC) (F)     (DEG/KT/KT) (MB)    (FT/S) (FT/S)
BRANDYWINE LGT   0342   47      10/ 16/ 19   N/A
CAPE MAY NJ      0342   46 48  360/  6/ 10 1018.8R
LEWES DE         0336   49 49   10/ 15/ 17 1019.1R
OCEAN-CITY-INLET 0336   47 50   10/  6/  7 1019.4R
WACHAPREAGUE VA  0336   45 49  360/  2/  3 1019.3R
THOMAS POINT MD  0400   47 49   10/ 11/ 12   N/A
GOOSES REEF MD   0350   49      70/ 10/ 14 1020.5R
COVE POINT MD    0336   48      30/ 11/ 12 1020.2R
SOLOMONS ISLAND  0336   46 51  280/  3/  4   N/A
BISHOPS HEAD MD  0336   46 47   10/  4/  6 1019.5R
PINEY POINT MD   0336          330/  4/  5   N/A
POTOMAC MD       0350   49      20/  4/  4 1018.8R
CAMBRIDGE MD     0336   46 47   60/  2/  3 1019.0R
LEWISETTA VA     0342   44 49  260/  5/  5 1019.6R
RAPPAHANNOCK LGT 0336           30/  6/  7 1019.9R
STINGRAY PT      0350   49      10/  6/  8 1019.8R
YORK RVR RNG VA  0342   49     340/  3/  4 1019.1R
YORKTOWN VA      0342   47 52  270/  2/  2 1019.2R
JAMESTOWN VA     0350   47      10/  2/  2   N/A
DOMINION TERM VA 0342   49      20/  2/  3 1019.3S
KIPTOPEKE VA     0336      52   20/  4/  4   N/A
CHES BAY BRIDGE  0342   50 53   50/  8/  9 1019.2R
CAPE HENRY VA    0342   50      20/  8/  9   N/A
WILLOUBY STN VA  0342   50      40/  8/  9 1020.2R
S CRANEY ISL VA  0342   50      50/  8/  9 1018.9S
CAPE HENRY BUOY  0342      56                N/A     4/ 5
1ST LANDING BUOY 0350   50                 1019.5R
CAPE CHARLES BUO 0356      55                N/A     3/ 4
OFFSHORE WE BUOY 0351      56                N/A     4/ 8
64NM E OF VA BCH 0350   54 60   20/ 16/ 19 1017.8R   6/ 6   3/ 8
DUCK PIER NC     0342   52 54   50/ 11/ 13 1017.9F
44100 DUCK FRF   0335      56                N/A     4/ 5   2/11
OREGON INLET NC  0342   53 57   20/ 11/ 13 1018.4R
HATTERAS NC      0342   54 60   10/ 10/ 12 1018.1R
DIAMOND SHLS NC  0350   59 77   10/ 14/ 16 1017.8R   5/ 9   3/ 9
CAPE LOOKOUT NC  0300   53      10/ 11/ 15 1018.3R
$$




USA.gov is the U.S. government's official web portal to all federal, state and local government web resources and services.